Date String (YYYY-MM-DD hh:mm:ss) UTC,Instrument flags,Ambient pressure (hPa),Sample flow (lpm),Bypass flow (lpm),Sample temperature (°C),Ambient temperature (°C),ASC tube jacket temperature (°C),LED temperature (°C),Box temperature (°C),Sample RH (%),Span deviation,Mass concentration (μg/m³),Mass concentration (μg/m³),Mass concentration (μg/m³)
DateTimeUTC,F1_M11,P_M11,Q1_M11,Q2_M11,T1_M11,T2_M11,T3_M11,T4_M11,T5_M11,U1_M11,ZSPAN_M11,X0_M11,X2_M11,X1_M11
2021-09-22 19:00:00,,0833.6,4.99,0.00,29.9,29.0,00.0,38.8,31.7,10.1,0000.0,0006.81,0002.57,0001.75
2021-09-22 19:01:00,,0833.6,4.99,0.00,29.9,29.1,00.0,38.9,31.8,10.2,0000.0,0006.58,0002.57,0001.74
2021-09-22 19:02:00,,0833.6,4.99,0.00,29.9,29.0,00.0,38.9,31.7,10.1,0000.0,0006.13,0002.49,0001.72
2021-09-22 19:03:00,,0833.6,5.00,0.00,29.9,27.3,00.0,38.9,31.3,10.1,0000.0,0006.27,0002.45,0001.70
2021-09-22 19:04:00,,0833.6,5.00,0.00,29.7,25.9,00.0,38.8,30.9,10.0,0000.0,0006.05,0002.39,0001.68
2021-09-22 19:05:00,,0833.5,5.01,0.00,29.6,26.1,00.0,38.8,31.0,10.1,0000.0,0007.84,0002.33,0001.66
2021-09-22 19:06:00,,0833.5,5.00,0.00,29.5,26.6,00.0,38.8,31.0,10.4,0000.0,0008.03,0002.30,0001.63
2021-09-22 19:07:00,,0833.5,4.99,0.00,29.5,27.0,00.0,38.7,31.1,10.6,0000.0,0008.15,0002.32,0001.62
2021-09-22 19:08:00,,0833.5,5.01,0.00,29.5,27.4,00.0,38.7,31.2,10.6,0000.0,0008.30,0002.33,0001.61
2021-09-22 19:09:00,,0833.5,4.99,0.00,29.5,27.8,00.0,38.7,31.3,10.6,0000.0,0008.63,0002.34,0001.60
2021-09-22 19:10:00,,0833.4,5.01,0.00,29.6,28.0,00.0,38.7,31.3,10.4,0000.0,0008.88,0002.30,0001.60
2021-09-22 19:11:00,,0833.4,5.00,0.00,29.6,28.3,00.0,38.7,31.4,10.6,0000.0,0009.16,0002.23,0001.59
2021-09-22 19:12:00,,0833.4,5.00,0.00,29.6,28.5,00.0,38.7,31.4,10.7,0000.0,0009.90,0002.22,0001.60
2021-09-22 19:13:00,,0833.4,5.00,0.00,29.7,28.6,00.0,38.7,31.5,10.9,0000.0,0010.81,0002.31,0001.61
2021-09-22 19:14:00,,0833.4,5.00,0.00,29.7,28.7,00.0,38.7,31.6,10.1,0000.0,0010.89,0002.33,0001.61
2021-09-22 19:15:00,,0833.4,5.00,0.00,29.8,28.9,00.0,38.7,31.6,10.4,0000.0,0010.56,0002.33,0001.61
2021-09-22 19:16:00,,0833.4,5.00,0.00,29.8,29.0,00.0,38.7,31.7,09.9,0000.0,0009.26,0002.34,0001.63
2021-09-22 19:17:00,,0833.4,5.01,0.00,29.8,29.0,00.0,38.8,31.7,09.7,0000.0,0008.73,0002.32,0001.64
2021-09-22 19:18:00,,0833.3,5.01,0.00,29.9,29.1,00.0,38.8,31.8,09.8,0000.0,0008.62,0002.25,0001.65
2021-09-22 19:19:00,,0833.3,5.00,0.00,29.9,29.1,00.0,38.8,31.8,10.0,0000.0,0009.32,0002.22,0001.67
2021-09-22 19:20:00,,0833.3,5.00,0.00,29.9,27.5,00.0,38.8,31.3,10.1,0000.0,0009.10,0002.26,0001.68
2021-09-22 19:21:00,,0833.2,5.00,0.00,29.7,25.9,00.0,38.8,30.8,10.5,0000.0,0009.95,0002.34,0001.70
2021-09-22 19:22:00,,0833.2,5.00,0.00,29.6,26.1,00.0,38.8,30.9,10.4,0000.0,0009.92,0002.39,0001.71
2021-09-22 19:23:00,,0833.2,5.00,0.00,29.5,26.5,00.0,38.7,31.0,10.2,0000.0,0009.63,0002.46,0001.73
2021-09-22 19:24:00,,0833.1,4.98,0.00,29.5,26.9,00.0,38.7,31.1,10.2,0000.0,0009.30,0002.42,0001.73
2021-09-22 19:25:00,,0833.1,5.01,0.00,29.5,27.3,00.0,38.7,31.1,10.5,0000.0,0009.38,0002.44,0001.75
2021-09-22 19:26:00,,0833.1,4.99,0.00,29.5,27.7,00.0,38.6,31.2,10.2,0000.0,0009.84,0002.52,0001.76
2021-09-22 19:27:00,,0833.1,5.01,0.00,29.5,28.0,00.0,38.6,31.3,10.2,0000.0,0010.41,0002.53,0001.75
2021-09-22 19:28:00,,0833.1,4.99,0.00,29.6,28.2,00.0,38.6,31.3,10.1,0000.0,0010.38,0002.51,0001.76
2021-09-22 19:29:00,,0833.1,4.99,0.00,29.6,28.4,00.0,38.6,31.4,10.0,0000.0,0010.20,0002.50,0001.75
2021-09-22 19:30:00,,0833.0,5.01,0.00,29.6,28.6,00.0,38.7,31.5,09.9,0000.0,0009.49,0002.52,0001.74
2021-09-22 19:31:00,,0833.0,4.99,0.00,29.7,28.7,00.0,38.7,31.5,09.8,0000.0,0009.54,0002.54,0001.73
2021-09-22 19:32:00,,0833.0,5.00,0.00,29.7,28.8,00.0,38.7,31.6,09.7,0000.0,0008.45,0002.48,0001.71
2021-09-22 19:33:00,,0833.0,5.00,0.00,29.8,28.9,00.0,38.7,31.6,09.8,0000.0,0008.23,0002.44,0001.69
2021-09-22 19:34:00,,0833.1,5.00,0.00,29.8,29.0,00.0,38.7,31.7,09.8,0000.0,0007.94,0002.40,0001.68
2021-09-22 19:35:00,,0833.0,5.01,0.00,29.8,29.0,00.0,38.8,31.7,10.2,0000.0,0007.24,0002.38,0001.69
2021-09-22 19:36:00,,0833.0,5.00,0.00,29.8,27.4,00.0,38.8,31.3,10.1,0000.0,0006.68,0002.36,0001.70
2021-09-22 19:37:00,,0833.0,5.00,0.00,29.6,25.8,00.0,38.7,30.9,10.1,0000.0,0006.23,0002.38,0001.72
2021-09-22 19:38:00,,0832.9,4.99,0.00,29.5,25.9,00.0,38.7,30.9,10.2,0000.0,0005.27,0002.43,0001.75
2021-09-22 19:39:00,,0832.9,5.01,0.00,29.4,26.4,00.0,38.7,30.9,10.4,0000.0,0005.32,0002.49,0001.77
2021-09-22 19:40:00,,0832.9,4.99,0.00,29.4,26.8,00.0,38.6,31.0,10.8,0000.0,0005.54,0002.58,0001.81
2021-09-22 19:41:00,,0832.8,5.02,0.00,29.4,27.3,00.0,38.6,31.1,10.5,0000.0,0005.89,0002.65,0001.83
2021-09-22 19:42:00,,0832.8,5.00,0.00,29.4,27.6,00.0,38.6,31.1,10.6,0000.0,0005.96,0002.67,0001.86
2021-09-22 19:43:00,,0832.9,5.01,0.00,29.5,27.9,00.0,38.6,31.2,10.7,0000.0,0006.20,0002.72,0001.91
2021-09-22 19:44:00,,0832.8,5.01,0.00,29.5,28.2,00.0,38.6,31.3,10.8,0000.0,0006.31,0002.75,0001.95
2021-09-22 19:45:00,,0832.8,5.00,0.00,29.5,28.4,00.0,38.6,31.4,10.7,0000.0,0007.39,0002.80,0001.97
2021-09-22 19:46:00,,0832.8,5.00,0.00,29.6,28.5,00.0,38.6,31.4,10.5,0000.0,0007.70,0002.82,0001.98
2021-09-22 19:47:00,,0832.9,4.99,0.00,29.6,28.7,00.0,38.6,31.5,10.1,0000.0,0008.28,0002.81,0001.98
2021-09-22 19:48:00,,0832.8,5.00,0.00,29.7,28.8,00.0,38.6,31.5,10.0,0000.0,0008.31,0002.77,0001.97
2021-09-22 19:49:00,,0832.8,4.99,0.00,29.7,28.9,00.0,38.7,31.6,10.1,0000.0,0008.27,0002.76,0001.97
2021-09-22 19:50:00,,0832.8,5.02,0.00,29.8,29.0,00.0,38.7,31.6,10.1,0000.0,0008.25,0002.73,0001.96
2021-09-22 19:51:00,,0832.8,5.00,0.00,29.8,29.1,00.0,38.7,31.7,10.2,0000.0,0008.58,0002.75,0001.96
2021-09-22 19:52:00,,0832.8,5.00,0.00,29.9,29.1,00.0,38.7,31.7,10.6,0000.0,0008.83,0002.70,0001.95
2021-09-22 19:53:00,,0832.7,5.00,0.00,29.8,27.6,00.0,38.8,31.3,10.7,0000.0,0009.01,0002.70,0001.96
2021-09-22 19:54:00,,0832.7,5.00,0.00,29.6,25.9,00.0,38.7,30.8,10.8,0000.0,0008.93,0002.71,0001.95
2021-09-22 19:55:00,,0832.6,5.00,0.00,29.5,26.0,00.0,38.7,30.8,10.9,0000.0,0009.17,0002.72,0001.93
2021-09-22 19:56:00,,0832.7,4.99,0.00,29.5,26.4,00.0,38.6,31.0,10.6,0000.0,0008.87,0002.70,0001.91
2021-09-22 19:57:00,,0832.7,5.00,0.00,29.4,26.9,00.0,38.6,31.0,10.5,0000.0,0008.93,0002.72,0001.91
2021-09-22 19:58:00,,0832.6,5.00,0.00,29.4,27.3,00.0,38.6,31.1,10.5,0000.0,0008.98,0002.82,0001.90
2021-09-22 19:59:00,,0832.6,4.99,0.00,29.5,27.7,00.0,38.6,31.2,10.3,0000.0,0009.22,0002.86,0001.90
